Location: Sungai Apap
(2.6167°N, 113.3833°E)
Time: 14:50:24
(UTC+00:00)

ARIANE 5 R/B - Pass Details

Date: 25 May 2024
Orbit: 298 x 33233 km, 4.2° (Epoch: 11 June)

Event Time Altitude Azimuth Distance (km) Brightness Sun altitude
Exits shadow 21:35:39 17° 247° (WSW) 859 2.2 -10.2°
Maximum altitude 21:37:00 48° 175° (S) 393 1.0 -9.9°
Drops below altitude 10° 21:39:23 10° 96° (E) 1,420 5.0 -9.3°
Sets 21:42:18 0° 90° (E) 3,007 7.0 -8.6°
